This is the latest recevied weather packets stored in our database for station/object KC1IUC-15. If no packets are shown the sender has not sent any weather packets the latest 10 day(s).
| Time | Temp. | Humidity | Pressure | Rain* | Wind** | Luminosity | Snow |
|---|---|---|---|---|---|---|---|
| 1777467003 | 11.67° C | 60% | 1016.1 hPa | 0 mm | - | 213 W/m² | - |
| 1777466703 | 11.67° C | 61% | 1016.1 hPa | 0 mm | - | 159 W/m² | - |
| 1777466403 | 12.22° C | 60% | 1016.1 hPa | 0 mm | - | 130 W/m² | - |
| 1777466103 | 11.67° C | 63% | 1016.1 hPa | 0 mm | - | 126 W/m² | - |
| 1777465803 | 11.11° C | 63% | 1016.1 hPa | 0 mm | - | 131 W/m² | - |
| 1777465503 | 11.11° C | 63% | 1016.7 hPa | 0 mm | - | 106 W/m² | - |
| 1777465203 | 11.67° C | 64% | 1016.4 hPa | 0 mm | - | 72 W/m² | - |
| 1777464903 | 11.11° C | 65% | 1016.4 hPa | 0 mm | - | 98 W/m² | - |
| 1777464603 | 11.11° C | 67% | 1016.7 hPa | 0 mm | - | 76 W/m² | - |
| 1777464303 | 10.56° C | 68% | 1016.7 hPa | 0 mm | - | 85 W/m² | - |
| 1777464003 | 10.56° C | 69% | 1016.7 hPa | 0 mm | - | 133 W/m² | - |
| 1777463703 | 10° C | 70% | 1016.7 hPa | 0 mm | - | 93 W/m² | - |
| 1777463403 | 10° C | 71% | 1017.1 hPa | 0 mm | - | 52 W/m² | - |
| 1777463103 | 10° C | 72% | 1017.1 hPa | 0 mm | - | 58 W/m² | - |
| 1777462803 | 10° C | 72% | 1017.1 hPa | 0 mm | - | 80 W/m² | - |
| 1777462503 | 10° C | 73% | 1017.1 hPa | 0 mm | - | 86 W/m² | - |
| 1777462203 | 9.44° C | 75% | 1017.1 hPa | 0 mm | - | 87 W/m² | - |
| 1777461903 | 9.44° C | 76% | 1017.1 hPa | 0 mm | - | 75 W/m² | - |
| 1777461603 | 8.89° C | 78% | 1016.7 hPa | 0 mm | - | 69 W/m² | - |
| 1777461303 | 8.33° C | 84% | 1017.1 hPa | 0 mm | - | 63 W/m² | - |
| 1777461003 | 7.78° C | 85% | 1017.1 hPa | 0 mm | - | 57 W/m² | - |
| 1777460703 | 7.78° C | 88% | 1017.4 hPa | 0 mm | - | 54 W/m² | - |
| 1777460403 | 7.22° C | 89% | 1017.1 hPa | 0 mm | - | 48 W/m² | - |
| 1777460103 | 7.22° C | 90% | 1017.1 hPa | 0 mm | - | 44 W/m² | - |
| 1777459803 | 7.22° C | 91% | 1017.1 hPa | 0 mm | - | 41 W/m² | - |
* Rain latest hour (hover to see other rain measurements)
** Current wind speed in m/s (hover to see current wind gust speed)